Regional Weather Roundup
Issued by NWS

Home | Current Version | Previous Version | Graphics & Text | Print | Product List | Glossary On
Versions: 1 2 3 4 5 6 7 8 9 10 11 12 13 14 15 16 17 18 19 20 21 22 23 24 25 26 27 28 29 30 31 32 33 34 35 36 37 38 39 40 41 42 43 44 45 46 47 48 49 50
000
ASUS43 KFSD 251702
RWRSD

WEATHER ROUNDUP FOR SOUTH DAKOTA
NATIONAL WEATHER SERVICE SIOUX FALLS SD
1100 AM CST SAT FEB 25 2017

NOTE: "FAIR" INDICATES FEW OR NO CLOUDS BELOW 12,000 FEET WITH NO
SIGNIFICANT WEATHER AND/OR OBSTRUCTIONS TO VISIBILITY.


SDZ001>005-009-010-012>017-251800-
NORTHWEST AND NORTH CENTRAL SOUTH DAKOTA

CITY           SKY/WX    TMP DP  RH WIND       PRES   REMARKS
BUFFALO          N/A     31  18  58 NW17      29.76F WCI  19
FAITH            N/A     33  24  69 W18       29.84F WCI  22
MOBRIDGE       MOSUNNY   32  18  56 S6        29.84F WCI  26
$$

SDZ012>016-024>037-041>051-057-063-072>074-251800-
SOUTHWEST AND SOUTH CENTRAL SOUTH DAKOTA

CITY           SKY/WX    TMP DP  RH WIND       PRES   REMARKS
RAPID CTY ARPT SUNNY     29  20  69 N13       29.87F WCI  19
PIERRE         SUNNY     30  18  60 W9        29.90F WCI  22
CUSTER         SUNNY     23   7  50 W13       29.77S WCI  11
ELLSWORTH AFB  SUNNY     30  21  68 N12       29.85F WCI  21
PHILIP         CLOUDY    29  22  75 W10       29.90F WCI  20
PINE RIDGE     SUNNY     19  13  77 SW13      29.90F WCI   6
SPEARFISH      FAIR      27  14  59 NW16      29.84F WCI  14
WINNER         CLOUDY    21  13  71 SW14      29.93F WCI   8
$$

SDZ004>011-016>023-039-040-251800-
NORTHEAST SOUTH DAKOTA

CITY           SKY/WX    TMP DP  RH WIND       PRES   REMARKS
ABERDEEN       SUNNY     31  17  56 SW15G21   29.92F WCI  20
WATERTOWN      SUNNY     28  16  60 SW17      29.91F WCI  16
BROOKINGS      MOSUNNY   27  18  69 SW12      29.95F WCI  17
SISSETON         N/A     33  17  51 W21       29.89F WCI  21
$$

SDZ017-020-022-023-036>040-048>070-251800-
SOUTHEAST SOUTH DAKOTA

CITY           SKY/WX    TMP DP  RH WIND       PRES   REMARKS
SIOUX FALLS    CLOUDY    23  15  71 SW6       30.01F WCI  16
HURON          CLOUDY    29  16  58 SW14      29.96F WCI  18
CHAMBERLAIN    SUNNY     30  19  62 SW12      29.94F WCI  20
MITCHELL       CLOUDY    28  17  63 S12       29.99F WCI  18
YANKTON        CLOUDY    21  14  73 S8        30.05F WCI  12
$$

ABBREVIATIONS USED IN REMARKS
   TC - TEMPERATURE IN CELSIUS
  WCI - WIND CHILL INDEX
   HX - HEAT INDEX
  VSB - VISIBILITY





USA.gov is the U.S. government's official web portal to all federal, state and local government web resources and services.